Location: Rioux
(40.7500°S, 175.7500°E)
Time: 10:09:51
(UTC+00:00)

Tiangong - Pass Details

Date: 12 June 2024
Orbit: 374 x 377 km, 41.5° (Epoch: 20 July)

Event Time Altitude Azimuth Distance (km) Brightness Sun altitude
Exits shadow 16:11:57 - 81° (E) 2,222 2.6 -38.2°
Enters shadow 17:10:23 -63° 292° (WNW) 11,771 5.4 -27.2°
Maximum altitude 17:44:37 32° 25° (NNE) 684 -0.6 -20.8°
